Moses Lake, WA
on Sunday, February 3, 2013

Sunday
Previous Day Next Day
Daily Summary
 ActualAverageRecord
Temperature
Mean Temperature °F 33°F  
Max Temperature 35°F 40°F 50°F (1986)
Min Temperature 24°F 26°F -14°F (1985)
Degree Days
Heating Degree Days 35 32  
Month to date heating degree days 93 97  
Since 1 July heating degree days 3447 3771  
Cooling Degree Days 0 0  
Month to date cooling degree days 0 0  
Year to date cooling degree days 0 0  
Moisture
Dew Point 27°F   
Average Humidity 87    
Maximum Humidity 92    
Minimum Humidity 82    
Precipitation
Precipitation 0.00 in 0.04 in 0.13 in (1980)
Month to date precipitation 0.00 0.11  
Year to date precipitation 0.28 1.25  
Wind
Wind Speed 2 mph   
Max Wind Speed 9 mph   
Max Gust Speed 10 mph   
Visibility 8 miles   
Events     

Key: T is trace of precipitation, MM is missing value
Source: NWS Daily Summary
Time(PST)TemperatureDew PointHumidity Pressure Visibility Wind DirectionWind SpeedGust SpeedPrecipitationEvents Conditions
12:52 AM 26.1°F 23.0°F 88% 30.27 in 10.0 miles North 3.5 mph - N/A   Clear
1:52 AM 26.1°F 23.0°F 88% 30.28 in 10.0 miles North 6.9 mph - N/A   Clear
2:52 AM 25.0°F 21.9°F 88% 30.27 in 10.0 miles North 4.6 mph - N/A   Clear
3:52 AM 24.8°F 21.2°F 86% 30.22 in 10.0 miles North 4.6 mph - N/A   Clear
4:52 AM 25.0°F 21.9°F 88% 30.26 in 10.0 miles North 5.8 mph - N/A   Mostly Cloudy
5:52 AM 26.1°F 23.0°F 88% 30.25 in 10.0 miles North 3.5 mph - N/A   Scattered Clouds
6:29 AM 26.6°F 23.0°F 86% 30.22 in 10.0 miles North 4.6 mph - N/A   Mostly Cloudy
6:52 AM 27.0°F 23.0°F 85% 30.25 in 10.0 miles Calm Calm - N/A   Mostly Cloudy
7:04 AM 26.6°F 24.8°F 93% 30.20 in 10.0 miles Calm Calm - N/A   Scattered Clouds
7:43 AM 26.6°F 23.0°F 86% 30.22 in 10.0 miles North 3.5 mph - N/A   Scattered Clouds
7:52 AM 27.0°F 24.1°F 89% 30.27 in 10.0 miles North 3.5 mph - N/A   Mostly Cloudy
8:06 AM 28.4°F 24.8°F 86% 30.22 in 10.0 miles Calm Calm - N/A   Overcast
8:48 AM 30.2°F 26.6°F 86% 30.22 in 10.0 miles Calm Calm - N/A   Overcast
8:52 AM 30.0°F 26.1°F 85% 30.27 in 10.0 miles Calm Calm - N/A   Overcast
9:02 AM 30.2°F 26.6°F 86% 30.22 in 10.0 miles Calm Calm - N/A   Overcast
9:52 AM 30.9°F 27.0°F 85% 30.27 in 10.0 miles Calm Calm - N/A   Overcast
10:52 AM 32.0°F 28.0°F 85% 30.27 in 10.0 miles Calm Calm - N/A   Overcast
11:52 AM 33.1°F 28.9°F 85% 30.26 in 10.0 miles Calm Calm - N/A   Overcast
12:52 PM 34.0°F 28.9°F 82% 30.24 in 10.0 miles Calm Calm - N/A   Overcast
1:52 PM 35.1°F 30.0°F 82% 30.21 in 9.0 miles Calm Calm - N/A   Overcast
2:52 PM 35.1°F 30.0°F 82% 30.23 in 10.0 miles Calm Calm - N/A   Overcast
3:52 PM 35.1°F 30.0°F 82% 30.21 in 10.0 miles Calm Calm - N/A   Overcast
4:52 PM 34.0°F 30.9°F 89% 30.22 in 8.0 miles Calm Calm - N/A   Overcast
5:52 PM 34.0°F 30.9°F 89% 30.21 in 8.0 miles Calm Calm - N/A   Overcast
6:52 PM 34.0°F 30.9°F 89% 30.21 in 7.0 miles NNW 3.5 mph - N/A   Overcast
7:13 PM 33.8°F 30.2°F 87% 30.15 in 3.0 miles Calm Calm - N/A   Overcast
7:20 PM 33.8°F 30.2°F 87% 30.17 in 2.0 miles West 5.8 mph - N/A   Overcast
7:34 PM 33.8°F 30.2°F 87% 30.16 in 4.0 miles Calm Calm - N/A   Overcast
7:52 PM 34.0°F 30.9°F 89% 30.20 in 5.0 miles Calm Calm - N/A   Overcast
8:52 PM 34.0°F 30.9°F 89% 30.19 in 4.0 miles Calm Calm - N/A   Overcast
9:52 PM 33.1°F 30.9°F 92% 30.19 in 5.0 miles WSW 3.5 mph - N/A   Overcast
10:52 PM 33.1°F 30.9°F 92% 30.17 in 3.0 miles Calm Calm - N/A   Overcast
11:02 PM 33.8°F 30.2°F 87% 30.13 in 1.8 miles Calm Calm - N/A   Overcast
11:52 PM 33.1°F 30.9°F 92% 30.17 in 2.5 miles Calm Calm - N/A   Overcast
Moon Phase
Feb. 03 Feb. 10 Feb. 17 Feb. 25 Mar. 04
Sunrise:07:19 AM (PST) Moon Rise:12:54 AM (PST)2/3
Sunset:05:03 PM (PST) Moon Set:10:41 AM (PST)2/3

Copyright © 2014 The Weather Underground, Inc.